Location: Christian Reformed Church
(43.0975°N, 93.8113°W)
Time: 17:39:43
(UTC+00:00)

ATLAS 3B R/B - Pass Details

Date: 13 December 2025
Orbit: 936 x 1258 km, 63.8° (Epoch: 15 January)

Event Time Altitude Azimuth Distance (km) Brightness Sun altitude
Exits shadow 12:40:06 - 326° (NW) 3,676 5.0 -10.4°
Reaches altitude 10° 12:41:25 10° 328° (NNW) 3,237 4.7 -10.1°
Maximum altitude 12:49:13 64° 49° (NE) 1,339 3.4 -8.8°
Drops below altitude 10° 12:56:34 10° 131° (SE) 3,065 6.6 -7.6°
Sets 12:59:14 0° 134° (SE) 3,979 7.3 -7.2°
